"Pseudo-MPEC" for P12oEGv

Created 2026 Jul 28 21:35:08 UT using Find_Orb

Click here for an explanation of pseudo-MPECs

 
 Astrometry: 
     P12oEGv*0C2026 07 25.56987423 04 49.546-07 09 43.96   ~7PKo 22.12wXNEOCPF51
     P12oEGv 0C2026 07 25.59112623 04 49.777-07 08 46.17   ~7PKo 21.51wXNEOCPF51
     P12oEGv 0C2026 07 25.60192423 04 49.883-07 08 16.68   ~7PKo 22.09wXNEOCPF51
     P12oEGv 0C2026 07 26.49567323 05 06.272-06 27 06.09   ~7QGZ 21.16GVNEOCPF52
     P12oEGv 0C2026 07 26.50514623 05 06.299-06 26 39.00   ~7QGZ 21.09GVNEOCPF52
     P12oEGv 0C2026 07 26.50595423 05 06.308-06 26 36.57   ~7QGZ 21.53GVNEOCPF52
     P12oEGv 0C2026 07 26.51484523 05 06.382-06 26 11.58   ~7QGZ 21.61GVNEOCPF52
     P12oEGv 0C2026 07 26.51565223 05 06.372-06 26 10.10   ~7QGZ 21.79GVNEOCPF52
     P12oEGv 0C2026 07 26.52452023 05 06.467-06 25 45.11   ~7QGZ 21.80GVNEOCPF52
     P12oEGv 0C2026 07 26.52532723 05 06.462-06 25 42.87   ~7QGZ 21.18GVNEOCPF52

Station data:
(F51) Pan-STARRS 1, Haleakala  (N20.707234 W156.255910)  US/Hawaii.
   Observers J. Herman, T. Lowe, P. Minguez, A. Schultz, I. Smith. Measurers
   K. Chambers, T. de Boer, J. Fairlamb, H. Gao, M. Huber, C.-C. Lin, E.
   Magnier, Y. Ramanjooloo, R. Wainscoat, R. Weryk. 1.8-m Ritchey-Chrétien +
   CCD.
(F52) Pan-STARRS 2, Haleakala  (N20.707382 W156.255910)  US/Hawaii.
   Observers J. Herman, T. Lowe, P. Minguez, A. Schultz, I. Smith. Measurers
   K. Chambers, T. de Boer, J. Fairlamb, H. Gao, M. Huber, C.-C. Lin, E.
   Magnier, Y. Ramanjooloo, R. Wainscoat, R. Weryk. 1.8-m Ritchey-Chrétien +
   CCD.

Orbital elements:  P12oEGv
   Perihelion 2026 Oct 17.592124 +/- 13.3 TT = 14:12:39.5 (JD 2461331.092124)
Epoch 2026 Jul 26.0 TT = JDT 2461247.5   Earth MOID: 0.2353   Ma: 0.0135
M 322.402477316 +/- 10              (J2000 ecliptic)             AutoNEOCP
n   0.449773504 +/- 0.0598          Peri.   71.161229 +/- 18
a   1.687097325 +/- 0.149           Node   314.991436 +/- 0.54
e   0.34755095 +/- 0.052            Incl.   17.995770 +/- 1.3
P   2.191/800.388d         H 21.80  G  0.15   U 10.9
q 1.100745035 +/- 0.125    Q 2.273449615 +/- 0.227
From 10 observations 2026 July 25-26 (22.9 hr); mean residual 0".24
Residuals in arcseconds: 
260725 F51  .14-  .10+    260726 F52  .19-  .22+    260726 F52  .16+  .18-    
260725 F51  .10+  .06-    260726 F52  .15-  .38+    260726 F52  .00   .21-    
260725 F51  .04+  .04-    260726 F52  .04-  .47+    
260726 F52  .49+  .35-    260726 F52  .28-  .32-    

Ephemerides (geocentric):
Date (UTC) HH   RA             Dec           delta  r     elong  mag " sig PA
---- --------  ------------   ------------  ------ ------ -----  --- --------
2026 07 28 22  23 05 36.050   -04 29 21.67  .37742 1.3259 139.7 21.6 7.07  92
2026 07 28 23  23 05 36.418   -04 27 15.49  .37711 1.3257 139.7 21.6 7.26  92
2026 07 29 00  23 05 36.781   -04 25 09.14  .37681 1.3255 139.8 21.6 7.45  92
2026 07 29 01  23 05 37.139   -04 23 02.63  .37650 1.3253 139.8 21.6 7.64  92
2026 07 29 02  23 05 37.491   -04 20 55.95  .37620 1.3251 139.8 21.6 7.83  92
2026 07 29 03  23 05 37.839   -04 18 49.10  .37589 1.3249 139.8 21.6 8.03  91
2026 07 29 04  23 05 38.180   -04 16 42.09  .37559 1.3247 139.9 21.6 8.22  91
2026 07 29 05  23 05 38.517   -04 14 34.91  .37528 1.3245 139.9 21.6 8.42  91
2026 07 29 06  23 05 38.848   -04 12 27.56  .37498 1.3243 139.9 21.6 8.63  91
2026 07 29 07  23 05 39.174   -04 10 20.05  .37467 1.3241 139.9 21.6 8.83  91
2026 07 29 08  23 05 39.495   -04 08 12.37  .37437 1.3240 140.0 21.6 9.04  91
2026 07 29 09  23 05 39.810   -04 06 04.52  .37407 1.3238 140.0 21.6 9.25  91
2026 07 29 10  23 05 40.120   -04 03 56.50  .37376 1.3236 140.0 21.6 9.46  91
2026 07 29 11  23 05 40.424   -04 01 48.32  .37346 1.3234 140.0 21.6 9.68  91
2026 07 29 12  23 05 40.723   -03 59 39.97  .37316 1.3232 140.0 21.6 9.89  91
2026 07 29 13  23 05 41.017   -03 57 31.45  .37286 1.3230 140.1 21.6 10.1  90
2026 07 29 14  23 05 41.305   -03 55 22.76  .37255 1.3228 140.1 21.6 10.3  90
2026 07 29 15  23 05 41.588   -03 53 13.91  .37225 1.3226 140.1 21.5 10.6  90
2026 07 29 16  23 05 41.866   -03 51 04.88  .37195 1.3224 140.1 21.5 10.8  90
2026 07 29 17  23 05 42.138   -03 48 55.69  .37165 1.3222 140.2 21.5 11.0  90
2026 07 29 18  23 05 42.405   -03 46 46.33  .37135 1.3220 140.2 21.5 11.2  90
2026 07 29 19  23 05 42.666   -03 44 36.80  .37105 1.3218 140.2 21.5 11.5  90
2026 07 29 20  23 05 42.922   -03 42 27.10  .37075 1.3217 140.2 21.5 11.7  90
2026 07 29 21  23 05 43.173   -03 40 17.22  .37045 1.3215 140.3 21.5 12.0  90
2026 07 29 22  23 05 43.418   -03 38 07.18  .37015 1.3213 140.3 21.5 12.2  90
2026 07 29 23  23 05 43.657   -03 35 56.97  .36985 1.3211 140.3 21.5 12.4  90
2026 07 30 00  23 05 43.892   -03 33 46.59  .36955 1.3209 140.3 21.5 12.7  90
2026 07 30 01  23 05 44.120   -03 31 36.04  .36925 1.3207 140.4 21.5 12.9  90
2026 07 30 02  23 05 44.344   -03 29 25.32  .36895 1.3205 140.4 21.5 13.2  90
2026 07 30 03  23 05 44.561   -03 27 14.43  .36865 1.3203 140.4 21.5 13.5  90
2026 07 30 04  23 05 44.774   -03 25 03.36  .36835 1.3201 140.4 21.5 13.7  90
2026 07 30 05  23 05 44.981   -03 22 52.13  .36805 1.3199 140.4 21.5 14.0  89
2026 07 30 06  23 05 45.182   -03 20 40.73  .36776 1.3197 140.5 21.5 14.2  89
2026 07 30 07  23 05 45.378   -03 18 29.15  .36746 1.3196 140.5 21.5 14.5  89
2026 07 30 08  23 05 45.568   -03 16 17.40  .36716 1.3194 140.5 21.5 14.8  89
2026 07 30 09  23 05 45.753   -03 14 05.48  .36686 1.3192 140.5 21.5 15.0  89
2026 07 30 10  23 05 45.933   -03 11 53.39  .36657 1.3190 140.6 21.5 15.3  89
2026 07 30 11  23 05 46.106   -03 09 41.12  .36627 1.3188 140.6 21.5 15.6  89
2026 07 30 12  23 05 46.275   -03 07 28.68  .36598 1.3186 140.6 21.5 15.9  89
2026 07 30 13  23 05 46.438   -03 05 16.07  .36568 1.3184 140.6 21.5 16.1  89
2026 07 30 14  23 05 46.595   -03 03 03.29  .36538 1.3182 140.7 21.5 16.4  89
2026 07 30 15  23 05 46.747   -03 00 50.34  .36509 1.3180 140.7 21.5 16.7  89
2026 07 30 16  23 05 46.893   -02 58 37.21  .36479 1.3178 140.7 21.5 17.0  89
2026 07 30 17  23 05 47.033   -02 56 23.91  .36450 1.3176 140.7 21.5 17.3  89
2026 07 30 18  23 05 47.169   -02 54 10.43  .36420 1.3175 140.7 21.5 17.6  89
2026 07 30 19  23 05 47.298   -02 51 56.78  .36391 1.3173 140.8 21.5 17.9  89
2026 07 30 20  23 05 47.422   -02 49 42.96  .36362 1.3171 140.8 21.5 18.2  89
2026 07 30 21  23 05 47.540   -02 47 28.96  .36332 1.3169 140.8 21.5 18.5  89